Year,Month,Day,Hour,Minute,Value (Times are PST for temperature in C)
2016,09,13,00,01,14.70
2016,09,13,00,02,14.60
2016,09,13,00,03,14.60
2016,09,13,00,04,14.50
2016,09,13,00,06,14.30
2016,09,13,00,07,14.20
2016,09,13,00,09,14.10
2016,09,13,00,11,14.00
2016,09,13,00,12,13.90
2016,09,13,00,13,13.80
2016,09,13,00,14,13.70
2016,09,13,00,16,13.70
2016,09,13,00,17,13.60
2016,09,13,00,18,13.60
2016,09,13,00,19,13.50
2016,09,13,00,21,13.30
2016,09,13,00,22,13.30
2016,09,13,00,23,13.30
2016,09,13,00,24,13.30
2016,09,13,00,26,13.20
2016,09,13,00,27,13.20
2016,09,13,00,28,13.10
2016,09,13,00,29,13.10
2016,09,13,00,31,13.10
2016,09,13,00,32,13.10
2016,09,13,00,33,13.00
2016,09,13,00,34,13.00
2016,09,13,00,36,13.00
2016,09,13,00,37,13.00
2016,09,13,00,38,13.00
2016,09,13,00,39,13.00
2016,09,13,00,41,13.00
2016,09,13,00,42,13.00
2016,09,13,00,43,12.90
2016,09,13,00,44,12.90
2016,09,13,00,45,12.90
2016,09,13,00,46,12.90
2016,09,13,00,47,12.90
2016,09,13,00,48,12.90
2016,09,13,00,49,12.90
2016,09,13,00,51,12.90
2016,09,13,00,52,12.90
2016,09,13,00,53,12.90
2016,09,13,00,54,12.90
2016,09,13,00,55,12.90
2016,09,13,00,56,13.00
2016,09,13,00,57,13.00
2016,09,13,00,58,13.00
2016,09,13,00,59,13.00
2016,09,13,01,00,13.00
2016,09,13,01,01,13.00
2016,09,13,01,02,13.00
2016,09,13,01,03,13.00
2016,09,13,01,04,13.00
2016,09,13,01,06,13.00
2016,09,13,01,07,13.00
2016,09,13,01,08,13.00
2016,09,13,01,09,13.00
2016,09,13,01,10,13.00
2016,09,13,01,11,13.00
2016,09,13,01,12,13.00
2016,09,13,01,13,13.00
2016,09,13,02,10,12.30
2016,09,13,02,11,12.30
2016,09,13,02,12,12.20
2016,09,13,02,13,12.20
2016,09,13,02,14,12.20
2016,09,13,02,15,12.20
2016,09,13,02,16,12.20
2016,09,13,02,17,12.10
2016,09,13,02,18,12.10
2016,09,13,02,19,12.10
2016,09,13,02,20,12.10
2016,09,13,02,21,12.00
2016,09,13,02,22,12.00
2016,09,13,02,23,12.00
2016,09,13,02,24,12.00
2016,09,13,02,25,12.00
2016,09,13,02,26,12.00
2016,09,13,02,27,12.00
2016,09,13,02,28,12.00
2016,09,13,02,29,12.00
2016,09,13,02,30,12.00
2016,09,13,02,32,12.10
2016,09,13,02,33,12.10
2016,09,13,02,34,12.10
2016,09,13,02,36,12.20
2016,09,13,02,37,12.20
2016,09,13,02,38,12.20
2016,09,13,02,39,12.20
2016,09,13,02,41,12.30
2016,09,13,02,42,12.30
2016,09,13,02,43,12.30
2016,09,13,02,44,12.30
2016,09,13,02,46,12.40
2016,09,13,02,47,12.50
2016,09,13,02,48,12.50
2016,09,13,02,49,12.60
2016,09,13,02,51,12.80
2016,09,13,02,52,12.80
2016,09,13,02,53,12.80
2016,09,13,02,54,12.90
2016,09,13,02,56,13.10
2016,09,13,02,57,13.20
2016,09,13,02,58,13.30
2016,09,13,02,59,13.30
2016,09,13,03,01,13.50
2016,09,13,03,02,13.60
2016,09,13,03,03,13.70
2016,09,13,03,04,13.80
2016,09,13,03,06,13.90
2016,09,13,03,07,14.00
2016,09,13,03,08,14.10
2016,09,13,03,09,14.20
2016,09,13,03,11,14.20
2016,09,13,03,12,14.20
2016,09,13,03,13,14.20
2016,09,13,03,14,14.20
2016,09,13,03,16,14.30
2016,09,13,03,17,14.30
2016,09,13,03,18,14.30
2016,09,13,03,19,14.30
2016,09,13,03,21,14.30
2016,09,13,03,22,14.20
2016,09,13,03,23,14.20
2016,09,13,03,24,14.20
2016,09,13,03,26,14.10
2016,09,13,03,27,14.00
2016,09,13,03,28,14.00
2016,09,13,03,29,13.90
2016,09,13,03,31,13.80
2016,09,13,03,32,13.80
2016,09,13,03,33,13.70
2016,09,13,03,34,13.70
2016,09,13,03,36,13.70
2016,09,13,03,37,13.70
2016,09,13,03,38,13.70
2016,09,13,03,39,13.70
2016,09,13,03,41,13.60
2016,09,13,03,42,13.60
2016,09,13,03,43,13.60
2016,09,13,03,44,13.60
2016,09,13,03,46,13.50
2016,09,13,03,47,13.50
2016,09,13,03,48,13.50
2016,09,13,03,49,13.40
2016,09,13,03,51,13.40
2016,09,13,03,52,13.30
2016,09,13,03,53,13.30
2016,09,13,03,54,13.30
2016,09,13,03,55,13.30
2016,09,13,03,56,13.30
2016,09,13,03,57,13.30
2016,09,13,03,58,13.30
2016,09,13,03,59,13.30
2016,09,13,04,00,13.20
2016,09,13,04,01,13.20
2016,09,13,04,02,13.20
2016,09,13,04,03,13.20
2016,09,13,04,04,13.10
2016,09,13,04,06,13.10
2016,09,13,04,07,13.10
2016,09,13,04,08,13.10
2016,09,13,04,09,13.10
2016,09,13,04,10,13.00
2016,09,13,04,11,13.00
2016,09,13,04,12,13.00
2016,09,13,04,13,12.90
2016,09,13,04,14,12.90
2016,09,13,04,15,12.90
2016,09,13,04,16,12.90
2016,09,13,04,17,12.90
2016,09,13,04,18,12.90
2016,09,13,04,19,12.90
2016,09,13,04,20,12.90
2016,09,13,04,21,12.90
2016,09,13,04,22,12.90
2016,09,13,04,23,12.90
2016,09,13,04,24,12.90
2016,09,13,04,25,13.00
2016,09,13,04,26,13.00
2016,09,13,04,27,13.00
2016,09,13,04,28,13.00
2016,09,13,04,29,13.00
2016,09,13,04,31,13.00
2016,09,13,04,32,13.00
2016,09,13,04,33,13.00
2016,09,13,04,34,13.00
2016,09,13,04,35,13.00
2016,09,13,04,36,13.00
2016,09,13,04,37,12.90
2016,09,13,04,38,12.90
2016,09,13,04,39,12.90
2016,09,13,04,40,12.90
2016,09,13,04,41,12.90
2016,09,13,04,42,12.90
2016,09,13,04,43,12.90
2016,09,13,04,44,12.90
2016,09,13,04,45,12.80
2016,09,13,04,46,12.80
2016,09,13,04,47,12.80
2016,09,13,04,48,12.80
2016,09,13,04,49,12.80
2016,09,13,04,50,12.80
2016,09,13,04,51,12.80
2016,09,13,04,52,12.80
2016,09,13,04,53,12.80
2016,09,13,04,54,12.70
2016,09,13,04,55,12.70
2016,09,13,04,56,12.70
2016,09,13,04,57,12.70
2016,09,13,04,58,12.70
2016,09,13,04,59,12.70
2016,09,13,05,00,12.70
2016,09,13,05,01,12.70
2016,09,13,05,02,12.70
2016,09,13,05,03,12.70
2016,09,13,05,04,12.70
2016,09,13,05,05,12.70
2016,09,13,05,06,12.80
2016,09,13,05,07,12.80
2016,09,13,05,08,12.80
2016,09,13,05,09,12.80
2016,09,13,05,10,12.80
2016,09,13,05,11,12.80
2016,09,13,05,12,12.80
2016,09,13,05,13,12.80
2016,09,13,05,14,12.80
2016,09,13,05,15,12.80
2016,09,13,05,16,12.80
2016,09,13,05,17,12.80
2016,09,13,05,18,12.80
2016,09,13,05,19,12.80
2016,09,13,05,20,12.80
2016,09,13,05,22,12.80
2016,09,13,05,24,12.80
2016,09,13,05,26,12.70
2016,09,13,05,27,12.70
2016,09,13,05,28,12.70
2016,09,13,05,29,12.70
2016,09,13,05,31,12.60
2016,09,13,05,32,12.60
2016,09,13,05,33,12.60
2016,09,13,05,34,12.50
2016,09,13,05,36,12.40
2016,09,13,05,37,12.40
2016,09,13,05,38,12.40
2016,09,13,05,39,12.40
2016,09,13,05,41,12.30
2016,09,13,07,10,12.60
2016,09,13,07,11,12.70
2016,09,13,07,12,12.80
2016,09,13,07,13,12.80
2016,09,13,07,14,12.80
2016,09,13,07,15,12.90
2016,09,13,07,16,13.10
2016,09,13,07,17,13.20
2016,09,13,07,18,13.30
2016,09,13,07,19,13.30
2016,09,13,07,20,13.40
2016,09,13,07,21,13.60
2016,09,13,07,22,13.70
2016,09,13,07,23,13.70
2016,09,13,07,24,13.80
2016,09,13,07,25,13.90
2016,09,13,07,26,14.00
2016,09,13,07,27,14.00
2016,09,13,07,28,14.10
2016,09,13,07,29,14.10
2016,09,13,07,30,14.20
2016,09,13,07,32,14.20
2016,09,13,07,34,14.20
2016,09,13,07,36,14.20
2016,09,13,07,37,14.30
2016,09,13,07,38,14.30
2016,09,13,07,39,14.40
2016,09,13,07,41,14.50
2016,09,13,07,42,14.60
2016,09,13,07,43,14.70
2016,09,13,07,44,14.80
2016,09,13,07,46,14.90
2016,09,13,07,47,14.90
2016,09,13,07,48,15.00
2016,09,13,07,49,15.10
2016,09,13,07,51,15.20
2016,09,13,07,52,15.30
2016,09,13,07,53,15.30
2016,09,13,07,54,15.30
2016,09,13,07,56,15.30
2016,09,13,07,57,15.30
2016,09,13,07,58,15.30
2016,09,13,07,59,15.30
2016,09,13,08,01,15.30
2016,09,13,08,02,15.30
2016,09,13,08,03,15.30
2016,09,13,08,04,15.30
2016,09,13,08,06,15.30
2016,09,13,08,07,15.20
2016,09,13,08,08,15.20
2016,09,13,08,09,15.10
2016,09,13,08,11,14.90
2016,09,13,08,12,14.90
2016,09,13,08,13,14.90
2016,09,13,08,14,14.80
2016,09,13,08,16,14.80
2016,09,13,08,17,14.80
2016,09,13,08,18,14.80
2016,09,13,08,19,14.70
2016,09,13,08,21,14.60
2016,09,13,08,22,14.60
2016,09,13,08,23,14.60
2016,09,13,08,24,14.60
2016,09,13,08,26,14.60
2016,09,13,08,27,14.70
2016,09,13,08,28,14.70
2016,09,13,08,29,14.70
2016,09,13,08,31,14.80
2016,09,13,08,32,14.80
2016,09,13,08,33,14.80
2016,09,13,08,34,14.80
2016,09,13,08,36,14.80
2016,09,13,08,37,14.80
2016,09,13,08,38,14.80
2016,09,13,08,39,14.80
2016,09,13,08,41,14.80
2016,09,13,08,42,14.80
2016,09,13,08,43,14.80
2016,09,13,08,44,14.80
2016,09,13,08,46,14.80
2016,09,13,08,47,14.80
2016,09,13,08,48,14.80
2016,09,13,08,49,14.80
2016,09,13,08,51,14.80
2016,09,13,08,52,14.80
2016,09,13,08,53,14.80
2016,09,13,08,54,14.80
2016,09,13,08,55,14.70
2016,09,13,08,56,14.70
2016,09,13,08,57,14.70
2016,09,13,08,58,14.70
2016,09,13,08,59,14.70
2016,09,13,09,00,14.70
2016,09,13,09,01,14.70
2016,09,13,09,02,14.80
2016,09,13,09,03,14.80
2016,09,13,09,04,14.70
2016,09,13,09,06,14.70
2016,09,13,09,07,14.80
2016,09,13,09,08,14.80
2016,09,13,09,09,14.80
2016,09,13,09,11,14.70
2016,09,13,09,12,14.70
2016,09,13,09,13,14.70
2016,09,13,09,14,14.60
2016,09,13,09,15,14.60
2016,09,13,09,16,14.60
2016,09,13,09,17,14.60
2016,09,13,09,18,14.60
2016,09,13,09,19,14.60
2016,09,13,09,20,14.60
2016,09,13,09,21,14.60
2016,09,13,09,22,14.60
2016,09,13,09,23,14.60
2016,09,13,09,24,14.70
2016,09,13,09,25,14.70
2016,09,13,09,26,14.70
2016,09,13,09,27,14.80
2016,09,13,09,28,14.80
2016,09,13,09,29,14.80
2016,09,13,09,30,14.90
2016,09,13,09,31,15.00
2016,09,13,09,32,15.00
2016,09,13,09,33,15.10
2016,09,13,09,34,15.10
2016,09,13,09,35,15.20
2016,09,13,09,36,15.20
2016,09,13,09,37,15.20
2016,09,13,09,38,15.20
2016,09,13,09,39,15.20
2016,09,13,09,40,15.20
2016,09,13,09,41,15.10
2016,09,13,09,42,15.10
2016,09,13,09,43,15.10
2016,09,13,09,44,15.10
2016,09,13,09,45,15.10
2016,09,13,09,46,15.10
2016,09,13,09,47,15.20
2016,09,13,09,48,15.20
2016,09,13,09,49,15.20
2016,09,13,09,50,15.30
2016,09,13,09,51,15.30
2016,09,13,09,52,15.30
2016,09,13,09,53,15.30
2016,09,13,09,54,15.30
2016,09,13,09,55,15.30
2016,09,13,09,56,15.40
2016,09,13,09,57,15.50
2016,09,13,09,58,15.50
2016,09,13,09,59,15.50
2016,09,13,10,00,15.60
2016,09,13,10,01,15.60
2016,09,13,10,02,15.60
2016,09,13,10,03,15.60
2016,09,13,10,04,15.60
2016,09,13,10,05,15.60
2016,09,13,10,06,15.60
2016,09,13,10,07,15.60
2016,09,13,10,08,15.60
2016,09,13,10,09,15.50
2016,09,13,10,10,15.50
2016,09,13,10,11,15.50
2016,09,13,10,12,15.60
2016,09,13,10,13,15.60
2016,09,13,10,14,15.70
2016,09,13,10,15,15.80
2016,09,13,10,17,15.80
2016,09,13,10,18,15.80
2016,09,13,10,19,15.80
2016,09,13,10,21,15.90
2016,09,13,10,22,15.90
2016,09,13,10,23,16.10
2016,09,13,10,24,16.10
2016,09,13,10,26,16.10
2016,09,13,10,27,16.10
2016,09,13,10,28,16.10
2016,09,13,10,29,16.10
2016,09,13,10,31,16.10
2016,09,13,10,32,16.10
2016,09,13,10,33,16.20
2016,09,13,10,34,16.20
2016,09,13,10,36,16.30
2016,09,13,10,37,16.30
2016,09,13,10,38,16.30
2016,09,13,10,39,16.30
2016,09,13,10,41,16.30
2016,09,13,10,42,16.30
2016,09,13,10,43,16.30
2016,09,13,10,44,16.30
2016,09,13,10,46,16.30
2016,09,13,10,47,16.30
2016,09,13,10,48,16.30
2016,09,13,10,49,16.30
2016,09,13,10,51,16.30
2016,09,13,10,52,16.30
2016,09,13,10,53,16.30
2016,09,13,10,54,16.40
2016,09,13,10,56,16.40
2016,09,13,10,57,16.40
2016,09,13,10,58,16.40
2016,09,13,10,59,16.40
2016,09,13,11,01,16.60
2016,09,13,11,02,16.60
2016,09,13,11,03,16.60
2016,09,13,11,04,16.60
2016,09,13,11,06,16.70
2016,09,13,11,07,16.70
2016,09,13,11,08,16.70
2016,09,13,11,09,16.70
2016,09,13,11,11,16.80
2016,09,13,11,12,16.80
2016,09,13,11,13,16.80
2016,09,13,11,14,16.80
2016,09,13,11,16,16.90
2016,09,13,11,17,16.90
2016,09,13,11,18,17.00
2016,09,13,11,19,17.00
2016,09,13,11,21,17.00
2016,09,13,11,22,17.00
2016,09,13,11,23,17.10
2016,09,13,11,24,17.10
2016,09,13,11,26,17.10
2016,09,13,11,27,17.10
2016,09,13,11,28,17.10
2016,09,13,11,29,17.10
2016,09,13,11,31,17.10
2016,09,13,11,32,17.10
2016,09,13,11,33,17.10
2016,09,13,11,34,17.10
2016,09,13,11,36,17.20
2016,09,13,11,37,17.20
2016,09,13,11,38,17.20
2016,09,13,11,39,17.30
2016,09,13,11,41,17.30
2016,09,13,11,42,17.30
2016,09,13,11,43,17.30
2016,09,13,11,44,17.30
2016,09,13,11,45,17.30
2016,09,13,11,46,17.30
2016,09,13,11,47,17.30
2016,09,13,11,48,17.30
2016,09,13,11,49,17.30
2016,09,13,11,50,17.30
2016,09,13,11,51,17.30
2016,09,13,11,52,17.30
2016,09,13,11,53,17.40
2016,09,13,11,54,17.50
2016,09,13,11,55,17.50
2016,09,13,11,56,17.60
2016,09,13,11,57,17.70
2016,09,13,11,58,17.80
2016,09,13,11,59,17.90
2016,09,13,12,00,17.90
2016,09,13,12,01,17.90
2016,09,13,12,02,17.90
2016,09,13,12,03,17.90
2016,09,13,12,04,17.90
2016,09,13,12,05,17.90
2016,09,13,12,06,18.10
2016,09,13,12,07,18.10
2016,09,13,12,08,18.10
2016,09,13,12,09,18.10
2016,09,13,12,10,18.10
2016,09,13,12,11,18.10
2016,09,13,12,12,18.10
2016,09,13,12,13,18.20
2016,09,13,12,14,18.20
2016,09,13,12,15,18.20
2016,09,13,12,16,18.30
2016,09,13,12,17,18.40
2016,09,13,12,18,18.50
2016,09,13,12,19,18.60
2016,09,13,12,20,18.70
2016,09,13,12,21,18.80
2016,09,13,12,22,18.90
2016,09,13,12,23,18.90
2016,09,13,12,24,18.90
2016,09,13,12,25,19.10
2016,09,13,12,26,19.10
2016,09,13,12,27,19.10
2016,09,13,12,28,19.10
2016,09,13,12,29,19.10
2016,09,13,12,30,18.90
2016,09,13,12,31,18.90
2016,09,13,12,32,18.90
2016,09,13,12,33,18.90
